"2010-03-07 00:00:00",1739799,12.29,113,3.012,0.776,11.55,102.7769,6.388,7.776,46.07,0,110,13.38,7.16,75.0
"2010-03-07 00:00:30",1739800,12.3,112,3.359,0.848,11.74,102.749,6.316,7.767,46.12,0,110.1,13.38,7.09,74.0
"2010-03-07 00:01:00",1739801,11.57,110.4,4.993,1.196,10.31,102.7439,6.303,7.612,46.66,0,110.1,13.38,7.08,72.4
"2010-03-07 00:01:30",1739802,11,102.2,5.602,1.186,8.39,102.7439,6.303,7.591,47.3,0,110.1,13.38,7.08,64.2
"2010-03-07 00:02:00",1739803,10.76,107.7,6.821,1.321,9.06,102.7394,6.292,7.494,47.83,0,110,13.38,7.07,69.7
"2010-03-07 00:02:30",1739804,12.05,112.7,3.014,0.664,11.48,102.7162,6.233,7.645,48.34,0,110,13.38,7.01,74.7
"2010-03-07 00:03:00",1739805,11.65,113.8,3.324,0.878,11.65,102.71,6.217,7.627,48.71,0,110,13.38,6.99,75.8
"2010-03-07 00:03:30",1739806,11.73,107.7,5.68,0.726,11.47,102.71,6.217,7.628,49.3,0,110,13.38,6.99,69.7
"2010-03-07 00:04:00",1739807,11.46,112,5.695,0.941,11.03,102.708,6.212,7.499,49.26,0,110,13.38,6.99,74.0
"2010-03-07 00:04:30",1739808,11.59,104.2,6.148,1.467,9.41,102.6894,6.164,7.478,49.01,0,110,13.38,6.94,66.2
"2010-03-07 00:05:00",1739809,11.97,106.1,6.314,1.228,9.06,102.6764,6.131,7.384,48.89,0,110,13.38,6.90,68.1
"2010-03-07 00:05:30",1739810,12.21,110.9,5.801,1.062,10.5,102.6765,6.131,7.502,49.08,0,110,13.38,6.90,72.9
"2010-03-07 00:06:00",1739811,12.91,112.2,4.091,0.844,11.36,102.6581,6.084,7.52,49,0,110,13.38,6.86,74.2
"2010-03-07 00:06:30",1739812,12.78,111.7,4.101,0.698,11.54,102.6478,6.058,7.496,49.39,0,110,13.38,6.83,73.7
"2010-03-07 00:07:00",1739813,13.16,112.2,3.667,0.669,11.31,102.6476,6.057,7.45,49.84,0,110,13.38,6.83,74.2
"2010-03-07 00:07:30",1739814,12.84,112.6,3.549,0.683,11.11,102.6245,5.998,7.449,50.16,0,110,13.38,6.77,74.6
"2010-03-07 00:08:00",1739815,12.79,113.4,3.408,0.686,10.97,102.6246,5.998,7.421,50.42,0,110,13.38,6.77,75.4
"2010-03-07 00:08:30",1739816,12.96,112,3.625,0.773,10.65,102.6108,5.963,7.38,50.69,0,110,13.38,6.74,74.0
"2010-03-07 00:09:00",1739817,12.52,112,3.864,0.824,10.64,102.5991,5.933,7.346,50.88,0,110,13.39,6.71,74.0
"2010-03-07 00:09:30",1739818,12.42,108.9,5.5,1.042,9.73,102.5969,5.928,7.248,51.08,0,110,13.39,6.70,70.9
"2010-03-07 00:10:00",1739819,11.85,111,5.093,1.117,9.72,102.579,5.882,7.179,51.16,0,110,13.39,6.65,73.0
"2010-03-07 00:10:30",1739820,11.87,108.3,6.71,1.264,8.34,102.5742,5.87,7.027,51.07,0,110,13.39,6.64,70.3
"2010-03-07 00:11:00",1739821,12.06,111.4,6.192,1.295,9.27,102.5635,5.842,7.165,51.39,0,110,13.39,6.61,73.4
"2010-03-07 00:11:30",1739822,12.74,115.7,3.914,0.784,10.86,102.5412,5.785,7.158,51.31,0,110.1,13.39,6.56,77.7
"2010-03-07 00:12:00",1739823,12.53,116.5,4.195,0.761,11.03,102.5415,5.786,7.168,51.24,0,110,13.39,6.56,78.5
"2010-03-07 00:12:30",1739824,12.35,117.6,3.562,0.773,11.04,102.5296,5.756,7.133,51.02,0,110,13.39,6.53,79.6
"2010-03-07 00:13:00",1739825,12.13,117.3,4.377,0.693,10.93,102.5116,5.71,7.11,51,0,110,13.39,6.48,79.3
"2010-03-07 00:13:30",1739826,12.49,117.3,3.68,0.492,10.68,102.5076,5.7,7.078,51.44,0,110,13.39,6.47,79.3
"2010-03-07 00:14:00",1739827,12.4,117.4,2.548,0.65,10.56,102.5073,5.699,7.074,51.39,0,110,13.39,6.47,79.4
"2010-03-07 00:14:30",1739828,12.2,114.8,4.208,0.691,10.61,102.4867,5.646,7.047,51.61,0,110,13.39,6.42,76.8
"2010-03-07 00:15:00",1739829,12,115.1,4.083,0.686,10.34,102.4737,5.613,7.021,51.71,0,110,13.39,6.38,77.1
"2010-03-07 00:15:30",1739830,11.71,113.4,3.94,0.843,10.17,102.4737,5.613,7.009,51.73,0,110,13.39,6.38,75.4
"2010-03-07 00:16:00",1739831,10.99,108.1,7.954,1.266,8.13,102.4737,5.613,6.859,51.59,0,110,13.4,6.38,70.1
"2010-03-07 00:16:30",1739832,11.54,106.4,5.841,1.209,8.59,102.4667,5.595,6.834,51.83,0,110,13.4,6.37,68.4
"2010-03-07 00:17:00",1739833,11.98,106.8,6.935,1.34,8.29,102.4424,5.533,6.819,51.91,0,110,13.4,6.30,68.8
"2010-03-07 00:17:30",1739834,12.99,113.3,2.887,0.774,10.81,102.4398,5.526,6.857,52.06,0,110,13.4,6.30,75.3
"2010-03-07 00:18:00",1739835,12.86,111.1,5.072,0.858,10.74,102.4396,5.526,6.886,52.28,0,110,13.4,6.30,73.1
"2010-03-07 00:18:30",1739836,13.08,113.3,1.917,0.838,10.9,102.4269,5.493,6.896,52.29,0,110,13.4,6.26,75.3
"2010-03-07 00:19:00",1739837,13.48,111.9,4.085,0.523,10.93,102.4063,5.441,6.859,52.04,0,110,13.4,6.21,73.9
"2010-03-07 00:19:30",1739838,13.29,112.2,2.677,0.649,10.76,102.4063,5.441,6.838,52.14,0,110,13.4,6.21,74.2
"2010-03-07 00:20:00",1739839,13.03,111.3,4.253,0.715,10.94,102.4057,5.439,6.821,52.28,0,110,13.39,6.21,73.3
"2010-03-07 00:20:30",1739840,13.05,112.1,3.218,0.612,10.45,102.3961,5.415,6.808,52.51,0,110,13.39,6.19,74.1
"2010-03-07 00:21:00",1739841,12.73,115,3.315,0.873,10.38,102.3746,5.36,6.79,52.59,0,110,13.39,6.13,77.0
"2010-03-07 00:21:30",1739842,12.55,115.6,3.8,0.707,10.41,102.3738,5.358,6.774,52.59,0,110,13.39,6.13,77.6
"2010-03-07 00:22:00",1739843,12.3,114.7,3.741,0.695,10.36,102.377,5.366,6.751,52.73,0,110,13.39,6.14,76.7
"2010-03-07 00:22:30",1739844,12.22,115.8,3.407,0.731,10.27,102.3802,5.374,6.732,52.69,0,110,13.39,6.14,77.8
"2010-03-07 00:23:00",1739845,12.08,116.9,1.913,0.85,10.1,102.3814,5.377,6.738,52.46,0,109.9,13.39,6.15,78.9
"2010-03-07 00:23:30",1739846,11.72,114.3,5.295,0.989,9.46,102.3747,5.36,6.637,52.38,0,109.9,13.4,6.13,76.3
"2010-03-07 00:24:00",1739847,11.54,113.2,5.605,1.212,9.12,102.3635,5.331,6.61,52.33,0,109.9,13.4,6.10,75.2
"2010-03-07 00:24:30",1739848,10.13,106.7,5.149,0.775,7.305,102.3622,5.328,6.54,52.17,0,109.8,13.4,6.10,68.7
"2010-03-07 00:25:00",1739849,11.9,116,4.468,0.901,10.1,102.3648,5.335,6.577,52.34,0,109.9,13.4,6.11,78.0
"2010-03-07 00:25:30",1739850,11.77,116.2,6.356,1.067,10.29,102.3656,5.337,6.612,52.63,0,110,13.41,6.11,78.2
"2010-03-07 00:26:00",1739851,12.24,118.4,3.547,0.9,10.91,102.3671,5.341,6.672,52.78,0,109.9,13.41,6.11,80.4
"2010-03-07 00:26:30",1739852,12.13,117.6,3.864,0.813,10.64,102.368,5.343,6.651,52.74,0,109.9,13.41,6.11,79.6
"2010-03-07 00:27:00",1739853,12.16,115.8,4.121,0.87,10.7,102.3717,5.352,6.647,52.68,0,109.9,13.41,6.12,77.8
"2010-03-07 00:27:30",1739854,11.94,114.7,5.056,0.855,10.32,102.3717,5.353,6.628,52.58,0,109.9,13.41,6.12,76.7
"2010-03-07 00:28:00",1739855,11.24,115.5,6.034,1.249,9.25,102.3678,5.342,6.528,52.54,0,109.9,13.41,6.11,77.5
"2010-03-07 00:28:30",1739856,10.8,110.4,6.257,1.069,7.634,102.3616,5.327,6.377,52.6,0,109.9,13.41,6.10,72.4
"2010-03-07 00:29:00",1739857,11.96,113.7,5.889,1.164,9.32,102.3565,5.314,6.533,52.61,0,109.9,13.41,6.08,75.7
"2010-03-07 00:29:30",1739858,12.27,115.4,4.054,0.673,10.98,102.3506,5.298,6.587,52.58,0,109.9,13.41,6.07,77.4
"2010-03-07 00:30:00",1739859,12.51,115.2,3.803,0.804,10.92,102.341,5.274,6.593,52.82,0,109.9,13.41,6.04,77.2
"2010-03-07 00:30:30",1739860,12.32,116.9,3.85,0.678,10.81,102.339,5.269,6.581,53.03,0,109.9,13.41,6.04,78.9
"2010-03-07 00:31:00",1739861,12.27,116.5,2.758,0.763,10.79,102.339,5.269,6.571,53.2,0,109.9,13.41,6.04,78.5
"2010-03-07 00:31:30",1739862,11.61,111.6,5.955,1.037,9.64,102.339,5.269,6.518,53.14,0,109.9,13.41,6.04,73.6
"2010-03-07 00:32:00",1739863,12.14,111.2,5.508,1.185,9.65,102.339,5.269,6.499,53.54,0,109.9,13.41,6.04,73.2
"2010-03-07 00:32:30",1739864,12.71,116.2,3.616,0.672,10.24,102.3345,5.257,6.559,54.31,0,109.9,13.41,6.03,78.2
"2010-03-07 00:33:00",1739865,12.89,117,3.522,0.5,10.44,102.3263,5.236,6.554,55.05,0,109.9,13.41,6.01,79.0
"2010-03-07 00:33:30",1739866,12.19,117,3.951,0.812,10.43,102.3093,5.193,6.54,55.31,0,109.9,13.41,5.96,79.0
"2010-03-07 00:34:00",1739867,12.02,116.7,4.646,0.885,10.38,102.3051,5.182,6.496,55.37,0,109.9,13.41,5.95,78.7
"2010-03-07 00:34:30",1739868,11.59,115.2,5.941,1.093,9.65,102.3051,5.182,6.465,55.54,0,109.9,13.41,5.95,77.2
"2010-03-07 00:35:00",1739869,11.28,114.1,6.06,1.198,8.93,102.3051,5.182,6.397,55.66,0,109.9,13.41,5.95,76.1
"2010-03-07 00:35:30",1739870,11.73,119.1,4.245,0.943,9.85,102.3051,5.182,6.425,55.81,0,109.9,13.41,5.95,81.1
"2010-03-07 00:36:00",1739871,11.23,116.1,6.072,1.02,9.35,102.3014,5.173,6.449,56.11,0,109.9,13.41,5.94,78.1
"2010-03-07 00:36:30",1739872,11.31,116.7,5.925,1.036,9.59,102.2865,5.135,6.434,56.24,0,109.9,13.41,5.90,78.7
"2010-03-07 00:37:00",1739873,11.44,118.2,6.354,1.026,10.12,102.2775,5.112,6.444,56.46,0,109.9,13.41,5.88,80.2
"2010-03-07 00:37:30",1739874,11.7,118.3,4.973,0.919,10.38,102.2752,5.106,6.441,56.54,0,109.9,13.42,5.88,80.3
"2010-03-07 00:38:00",1739875,11.79,119.4,3.547,0.738,10.67,102.277,5.11,6.446,56.82,0,109.9,13.42,5.88,81.4
"2010-03-07 00:38:30",1739876,11.58,120,4.472,0.532,10.64,102.2784,5.114,6.437,56.87,0,109.9,13.42,5.88,82.0
"2010-03-07 00:39:00",1739877,11.3,121.7,3.512,0.687,10.31,102.2739,5.103,6.429,57.05,0,109.9,13.42,5.87,83.7
"2010-03-07 00:39:30",1739878,11.24,120,3.948,0.722,10.11,102.2584,5.063,6.432,57.14,0,109.9,13.42,5.83,82.0
"2010-03-07 00:40:00",1739879,11.42,118.1,4.356,0.75,9.97,102.25,5.042,6.417,57.64,0,109.9,13.42,5.81,80.1
"2010-03-07 00:40:30",1739880,11.35,119.6,3.944,0.869,9.82,102.2526,5.048,6.414,58.18,0,109.9,13.42,5.82,81.6
"2010-03-07 00:41:00",1739881,11.49,120.8,3.97,0.77,9.71,102.2555,5.056,6.403,58.17,0,109.9,13.42,5.83,82.8
"2010-03-07 00:41:30",1739882,12.48,124.1,3.493,0.728,9.77,102.2541,5.052,6.377,58.31,0,109.9,13.42,5.82,86.1
"2010-03-07 00:42:00",1739883,11.86,120.4,5.898,1.189,8.57,102.2443,5.027,6.304,58.5,0,109.9,13.42,5.80,82.4
"2010-03-07 00:42:30",1739884,11.64,121.2,4.948,1.083,9.44,102.2302,4.991,6.258,58.75,0,109.9,13.42,5.76,83.2
"2010-03-07 00:43:00",1739885,12.2,120,5.59,1.214,9.34,102.2323,4.996,6.327,59.14,0,109.8,13.42,5.77,82.0
"2010-03-07 00:43:30",1739886,12.38,125.1,3.442,0.969,10.1,102.234,5.001,6.33,59.19,0,109.9,13.43,5.77,87.1
"2010-03-07 00:44:00",1739887,12.24,126.6,3.889,0.672,10.33,102.2247,4.977,6.311,59.16,0,109.9,13.43,5.75,88.6
"2010-03-07 00:44:30",1739888,11.31,125,5.969,1.192,9.32,102.2055,4.928,6.245,59.42,0,109.9,13.43,5.70,87.0
"2010-03-07 00:45:00",1739889,11.53,120.8,6.555,1.282,8.6,102.2027,4.921,6.166,59.54,0,109.9,13.43,5.69,82.8
"2010-03-07 00:45:30",1739890,12.22,125.6,4.937,0.972,9.93,102.2038,4.924,6.175,59.97,0,109.9,13.43,5.69,87.6
"2010-03-07 00:46:00",1739891,12.44,125.6,4.173,0.676,10.56,102.2036,4.923,6.225,60.19,0,109.9,13.43,5.69,87.6
"2010-03-07 00:46:30",1739892,12.06,125.7,3.362,0.674,10.58,102.1869,4.88,6.214,60.29,0,109.9,13.43,5.65,87.7
"2010-03-07 00:47:00",1739893,12.25,123.9,4.613,0.411,10.52,102.1708,4.839,6.184,60.36,0,109.9,13.43,5.61,85.9
"2010-03-07 00:47:30",1739894,12.29,125,3.719,0.652,10.23,102.1702,4.838,6.202,60.43,0,109.9,13.43,5.61,87.0
"2010-03-07 00:48:00",1739895,12.61,127,3.749,0.603,10.04,102.1702,4.838,6.179,60.57,0,109.9,13.43,5.61,89.0
"2010-03-07 00:48:30",1739896,12.33,128.6,2.839,0.798,10.04,102.1702,4.838,6.167,60.77,0,109.9,13.43,5.61,90.6
"2010-03-07 00:49:00",1739897,12.23,125.2,4.598,0.603,10.26,102.168,4.832,6.159,60.84,0,109.9,13.43,5.60,87.2
"2010-03-07 00:49:30",1739898,11.83,128.6,3.221,0.788,9.71,102.1493,4.784,6.107,60.93,0,109.9,13.43,5.55,90.6
"2010-03-07 00:50:00",1739899,12.07,127.4,3.325,0.785,9.78,102.1363,4.751,6.127,61.06,0,109.9,13.43,5.52,89.4
"2010-03-07 00:50:30",1739900,12.8,129.5,4.172,0.7,9.87,102.1363,4.751,6.086,61.22,0,109.9,13.43,5.52,91.5
"2010-03-07 00:51:00",1739901,13.49,128.9,3.688,0.673,9.68,102.1363,4.751,6.078,61.51,0,109.9,13.43,5.52,90.9
"2010-03-07 00:51:30",1739902,13.2,129,3.533,0.798,9.9,102.1346,4.747,6.087,61.61,0,109.9,13.43,5.52,91.0
"2010-03-07 00:52:00",1739903,12.85,129.7,3.948,0.692,9.84,102.1205,4.711,6.061,61.76,0,109.9,13.43,5.48,91.7
"2010-03-07 00:52:30",1739904,12.97,128.8,4.387,0.576,10.02,102.1072,4.677,6.042,61.89,0,109.9,13.42,5.45,90.8
"2010-03-07 00:53:00",1739905,12.87,130,3.774,0.586,10.05,102.1024,4.665,6.04,61.86,0,109.9,13.42,5.43,92.0
"2010-03-07 00:53:30",1739906,12.85,128.6,4.227,0.371,10.02,102.1018,4.663,6.025,61.93,0,109.9,13.43,5.43,90.6
"2010-03-07 00:54:00",1739907,12.66,129.2,4.372,0.562,10.01,102.0965,4.65,5.998,62.03,0,109.9,13.42,5.42,91.2
"2010-03-07 00:54:30",1739908,12.8,128.5,3.848,0.768,9.92,102.0764,4.598,5.977,62.15,0,109.9,13.42,5.37,90.5
"2010-03-07 00:55:00",1739909,13.03,126.9,3.553,0.679,9.98,102.0685,4.578,5.959,62.25,0,109.9,13.43,5.35,88.9
"2010-03-07 00:55:30",1739910,13.08,128.1,4.028,0.537,9.87,102.0685,4.578,5.938,62.5,0,109.9,13.43,5.35,90.1
"2010-03-07 00:56:00",1739911,12.96,128.5,4.015,0.767,9.88,102.0682,4.577,5.939,62.72,0,109.9,13.43,5.35,90.5
"2010-03-07 00:56:30",1739912,12.94,129.8,3.518,0.757,9.81,102.0583,4.552,5.907,62.86,0,109.9,13.43,5.32,91.8
"2010-03-07 00:57:00",1739913,12.89,129.4,4.03,0.557,10.12,102.0445,4.517,5.905,62.95,0,109.9,13.43,5.28,91.4
"2010-03-07 00:57:30",1739914,12.78,130.5,3.131,0.64,9.81,102.0357,4.494,5.875,63.14,0,109.9,13.43,5.26,92.5
"2010-03-07 00:58:00",1739915,12.35,131.1,2.435,0.833,9.67,102.0346,4.492,5.861,63.27,0,109.9,13.43,5.26,93.1
"2010-03-07 00:58:30",1739916,12.49,128.5,4.442,0.608,9.95,102.0335,4.489,5.837,63.32,0,109.9,13.43,5.26,90.5
"2010-03-07 00:59:00",1739917,12.29,130,3.526,0.689,10.02,102.0202,4.455,5.846,63.32,0,109.9,13.43,5.22,92.0
"2010-03-07 00:59:30",1739918,12.25,128.7,3.345,0.748,9.74,102.0032,4.411,5.815,63.34,0,109.9,13.44,5.18,90.7
"2010-03-07 01:00:00",1739919,12.16,128.5,3.003,0.731,9.57,102.0007,4.405,5.812,63.29,0,109.9,13.44,5.17,90.5
"2010-03-07 01:00:30",1739920,12.17,129,3.886,0.654,9.79,102.0007,4.405,5.776,63.42,0,109.9,13.44,5.17,91.0
"2010-03-07 01:01:00",1739921,12.18,128.7,3.272,0.769,9.86,102.0007,4.405,5.776,63.45,0,109.9,13.44,5.17,90.7
"2010-03-07 01:01:30",1739922,12.21,128.3,3.459,0.653,9.77,101.9978,4.398,5.752,63.36,0,109.9,13.44,5.17,90.3
"2010-03-07 01:02:00",1739923,12.38,126.1,4.02,0.656,9.63,101.9894,4.376,5.739,63.31,0,109.9,13.44,5.14,88.1
"2010-03-07 01:02:30",1739924,12.5,126.2,3.112,0.769,9.46,101.982,4.357,5.738,63.46,0,109.9,13.44,5.12,88.2
"2010-03-07 01:03:00",1739925,12.53,127.6,2.702,0.84,9.6,101.9693,4.325,5.711,63.76,0,109.9,13.44,5.09,89.6
"2010-03-07 01:03:30",1739926,12.79,127.2,3.987,0.524,9.69,101.9696,4.326,5.711,63.98,0,109.9,13.44,5.09,89.2
"2010-03-07 01:04:00",1739927,12.59,126.5,3.304,0.781,9.6,101.9699,4.326,5.72,64.16,0,109.9,13.44,5.09,88.5
"2010-03-07 01:04:30",1739928,12.53,127,3.405,0.788,9.54,101.9708,4.329,5.671,64.23,0,109.9,13.44,5.10,89.0
"2010-03-07 01:05:00",1739929,11.97,128.3,3.08,0.823,9.6,101.9672,4.319,5.671,64.37,0,109.9,13.44,5.09,90.3
"2010-03-07 01:05:30",1739930,12.22,128.5,3.688,0.622,9.5,101.9576,4.295,5.656,64.47,0,109.9,13.44,5.06,90.5
"2010-03-07 01:06:00",1739931,12.47,126.6,3.421,0.757,9.51,101.9461,4.266,5.66,64.49,0,109.8,13.45,5.03,88.6
"2010-03-07 01:06:30",1739932,12.02,127.6,3.376,0.745,9.48,101.9452,4.263,5.612,64.55,0,109.8,13.45,5.03,89.6
"2010-03-07 01:07:00",1739933,12.29,127.3,3.444,0.79,9.61,101.9496,4.274,5.618,64.58,0,109.8,13.45,5.04,89.3
"2010-03-07 01:07:30",1739934,12.16,127.3,3.598,0.681,9.46,101.9522,4.281,5.6,64.49,0,109.8,13.44,5.05,89.3
"2010-03-07 01:08:00",1739935,11.96,126.5,3.541,0.757,9.49,101.9375,4.244,5.608,64.61,0,109.8,13.44,5.01,88.5
"2010-03-07 01:08:30",1739936,12.06,126.9,3.427,0.755,9.58,101.9297,4.224,5.575,64.42,0,109.8,13.44,4.99,88.9
"2010-03-07 01:09:00",1739937,11.9,128.2,2.958,0.778,9.57,101.924,4.209,5.564,64.24,0,109.8,13.44,4.98,90.2
"2010-03-07 01:09:30",1739938,12.16,128.2,3.335,0.645,9.4,101.9275,4.218,5.55,64.15,0,109.8,13.44,4.98,90.2
"2010-03-07 01:10:00",1739939,12.26,129.5,3.851,0.665,9.56,101.9269,4.217,5.539,64.3,0,109.8,13.44,4.98,91.5
"2010-03-07 01:10:30",1739940,12.45,130.2,3.395,0.757,9.53,101.9306,4.226,5.531,64.47,0,109.8,13.44,4.99,92.2
"2010-03-07 01:11:00",1739941,12.5,130.8,3.339,0.668,9.56,101.9298,4.224,5.515,64.65,0,109.8,13.44,4.99,92.8
"2010-03-07 01:11:30",1739942,12.75,129.9,4.055,0.518,9.63,101.9318,4.229,5.526,64.73,0,109.8,13.44,5.00,91.9
"2010-03-07 01:12:00",1739943,12.52,132,3.933,0.683,9.6,101.9228,4.206,5.511,64.74,0,109.8,13.44,4.97,94.0
"2010-03-07 01:12:30",1739944,12.56,131.2,3.857,0.658,9.65,101.9109,4.176,5.483,64.91,0,109.8,13.44,4.94,93.2
"2010-03-07 01:13:00",1739945,12.51,131.6,2.503,0.729,9.65,101.9004,4.149,5.487,65.12,0,109.8,13.45,4.92,93.6
"2010-03-07 01:13:30",1739946,12.75,130.2,4.249,0.411,9.76,101.8993,4.146,5.481,65.19,0,109.8,13.45,4.91,92.2
"2010-03-07 01:14:00",1739947,12.67,129.6,3.92,0.777,9.67,101.8996,4.147,5.473,65.21,0,109.8,13.45,4.91,91.6
"2010-03-07 01:14:30",1739948,12.89,130.5,2.84,0.847,9.6,101.8996,4.147,5.448,65,0,109.8,13.45,4.91,92.5
"2010-03-07 01:15:00",1739949,12.96,130.4,3.258,0.705,9.79,101.8996,4.147,5.446,64.74,0,109.8,13.45,4.91,92.4
"2010-03-07 01:15:30",1739950,13.14,130.2,3.938,0.53,9.77,101.8942,4.133,5.419,64.75,0,109.8,13.45,4.90,92.2
"2010-03-07 01:16:00",1739951,13.19,130.5,4.021,0.681,9.74,101.8846,4.109,5.424,64.73,0,109.8,13.45,4.87,92.5
"2010-03-07 01:16:30",1739952,13.09,130.5,3.998,0.657,9.75,101.8784,4.093,5.393,65.03,0,109.8,13.45,4.86,92.5
"2010-03-07 01:17:00",1739953,13.18,131.6,3.261,0.758,9.86,101.8671,4.064,5.383,65,0,109.8,13.45,4.83,93.6
"2010-03-07 01:17:30",1739954,12.96,131.5,3.504,0.707,9.74,101.8657,4.06,5.373,65.16,0,109.9,13.45,4.83,93.5
"2010-03-07 01:18:00",1739955,12.71,132.6,3.684,0.774,9.6,101.8657,4.06,5.389,65.42,0,109.8,13.45,4.83,94.6
"2010-03-07 01:18:30",1739956,12.45,131.7,3.762,0.725,9.74,101.8654,4.059,5.333,65.63,0,109.8,13.45,4.83,93.7
"2010-03-07 01:19:00",1739957,13.12,131.5,3.252,0.64,9.84,101.8538,4.03,5.342,65.7,0,109.8,13.45,4.80,93.5
"2010-03-07 01:19:30",1739958,12.97,132.6,3.54,0.746,9.74,101.8351,3.982,5.318,65.58,0,109.9,13.45,4.75,94.6
"2010-03-07 01:20:00",1739959,12.95,133.1,3.394,0.742,9.75,101.8317,3.974,5.334,65.64,0,109.8,13.45,4.74,95.1
"2010-03-07 01:20:30",1739960,13.09,134.2,3.518,0.754,9.78,101.8317,3.974,5.297,65.78,0,109.8,13.45,4.74,96.2
"2010-03-07 01:21:00",1739961,12.82,135.2,2.921,0.742,9.85,101.8317,3.974,5.302,65.92,0,109.8,13.45,4.74,97.2
"2010-03-07 01:21:30",1739962,12.93,134.9,3.468,0.638,9.81,101.8317,3.974,5.273,65.81,0,109.9,13.46,4.74,96.9
"2010-03-07 01:22:00",1739963,12.77,135,3.428,0.76,9.89,101.8312,3.972,5.27,65.81,0,109.8,13.46,4.74,97.0
"2010-03-07 01:22:30",1739964,12.64,135.2,3.466,0.755,9.94,101.8284,3.965,5.254,65.82,0,109.8,13.46,4.73,97.2
"2010-03-07 01:23:00",1739965,12.9,135.3,3.232,0.752,9.99,101.8179,3.938,5.246,65.82,0,109.8,13.46,4.70,97.3
"2010-03-07 01:23:30",1739966,13.2,134.6,3.469,0.626,9.85,101.806,3.908,5.244,65.88,0,109.8,13.46,4.67,96.6
"2010-03-07 01:24:00",1739967,13.73,134.9,3.387,0.873,9.78,101.7981,3.888,5.244,66.03,0,109.8,13.45,4.65,96.9
"2010-03-07 01:24:30",1739968,14.1,134.6,3.307,0.752,9.75,101.7978,3.887,5.212,66.42,0,109.8,13.45,4.65,96.6
"2010-03-07 01:25:00",1739969,13.93,132.8,3.396,0.733,9.8,101.7978,3.887,5.22,66.71,0,109.8,13.45,4.65,94.8
"2010-03-07 01:25:30",1739970,13.89,130.5,4.179,0.383,9.85,101.7973,3.886,5.215,67.01,0,109.8,13.45,4.65,92.5
"2010-03-07 01:26:00",1739971,13.52,129.7,4.101,0.658,9.87,101.7828,3.849,5.188,67.16,0,109.8,13.45,4.61,91.7
"2010-03-07 01:26:30",1739972,13.24,130,3.558,0.737,9.79,101.7642,3.801,5.185,67.31,0,109.8,13.45,4.57,92.0
"2010-03-07 01:27:00",1739973,13.14,130.1,2.944,0.777,9.78,101.7639,3.8,5.153,67.4,0,109.8,13.45,4.57,92.1
"2010-03-07 01:27:30",1739974,13.18,130.3,4.012,0.557,9.77,101.7639,3.8,5.131,67.36,0,109.8,13.45,4.57,92.3
"2010-03-07 01:28:00",1739975,13.08,131.9,3.45,0.758,9.61,101.7554,3.779,5.134,67.18,0,109.8,13.45,4.54,93.9
"2010-03-07 01:28:30",1739976,12.95,132.5,3.408,0.742,9.73,101.7421,3.745,5.111,67,0,109.8,13.45,4.51,94.5
"2010-03-07 01:29:00",1739977,12.92,133.5,3.464,0.674,9.88,101.7303,3.715,5.084,66.95,0,109.8,13.45,4.48,95.5
"2010-03-07 01:29:30",1739978,12.74,134.2,4.054,0.654,9.72,101.73,3.714,5.07,66.96,0,109.8,13.46,4.48,96.2
"2010-03-07 01:30:00",1739979,12.49,134.5,3.952,0.641,9.84,101.73,3.714,5.078,66.96,0,109.8,13.46,4.48,96.5
"2010-03-07 01:30:30",1739980,12.25,134.8,3.93,0.65,9.83,101.73,3.714,5.045,67.03,0,109.8,13.46,4.48,96.8
"2010-03-07 01:31:00",1739981,12.02,135.4,3.346,0.679,9.92,101.73,3.714,5.035,67.26,0,109.8,13.46,4.48,97.4
"2010-03-07 01:31:30",1739982,12.01,134.9,3.888,0.633,9.82,101.73,3.714,5.036,67.38,0,109.8,13.46,4.48,96.9
"2010-03-07 01:32:00",1739983,11.84,134.6,3.279,0.744,9.71,101.7294,3.712,5.028,67.41,0,109.8,13.46,4.48,96.6
"2010-03-07 01:32:30",1739984,11.73,134.1,3.479,0.749,9.68,101.7286,3.71,5.012,67.41,0,109.8,13.46,4.48,96.1
"2010-03-07 01:33:00",1739985,11.81,134.7,2.653,0.746,9.69,101.7297,3.713,5.009,67.34,0,109.8,13.46,4.48,96.7
"2010-03-07 01:33:30",1739986,12.07,133.4,4.355,0.366,9.58,101.7286,3.71,5.007,67.16,0,109.8,13.46,4.48,95.4
"2010-03-07 01:34:00",1739987,12.04,133.5,4.279,0.565,9.51,101.7246,3.7,5.01,67.13,0,109.8,13.46,4.47,95.5
"2010-03-07 01:34:30",1739988,12.26,132.2,4.33,0.571,9.5,101.7209,3.691,4.994,67.07,0,109.8,13.46,4.46,94.2
"2010-03-07 01:35:00",1739989,12.48,131.9,3.927,0.535,9.58,101.7164,3.679,4.992,67,0,109.8,13.46,4.44,93.9
"2010-03-07 01:35:30",1739990,12.44,131,4.333,0.683,9.47,101.7099,3.663,5.005,66.97,0,109.8,13.46,4.43,93.0
"2010-03-07 01:36:00",1739991,12.49,131,3.921,0.746,9.42,101.7006,3.639,4.99,67.01,0,109.8,13.46,4.40,93.0
"2010-03-07 01:36:30",1739992,12.62,131.1,2.446,0.743,9.36,101.6984,3.633,4.973,66.91,0,109.8,13.46,4.40,93.1
"2010-03-07 01:37:00",1739993,13.04,131.8,3.327,0.664,9.52,101.6966,3.629,4.952,66.71,0,109.8,13.46,4.39,93.8
"2010-03-07 01:37:30",1739994,13.36,132.6,4.424,0.557,9.45,101.6998,3.637,4.947,66.66,0,109.9,13.46,4.40,94.6
"2010-03-07 01:38:00",1739995,13.39,133.7,3.471,0.669,9.47,101.6995,3.636,4.963,66.92,0,109.8,13.46,4.40,95.7
"2010-03-07 01:38:30",1739996,13.18,134,3.268,0.767,9.52,101.6891,3.609,4.925,66.98,0,109.8,13.47,4.37,96.0
"2010-03-07 01:39:00",1739997,13.04,135.4,3.179,0.74,9.88,101.6716,3.565,4.938,66.83,0,109.8,13.47,4.33,97.4
"2010-03-07 01:39:30",1739998,13,135.7,3.363,0.649,9.71,101.6687,3.558,4.92,66.66,0,109.8,13.47,4.32,97.7
"2010-03-07 01:40:00",1739999,12.84,136.2,3.336,0.747,9.64,101.6702,3.561,4.918,66.67,0,109.8,13.47,4.33,98.2
"2010-03-07 01:40:30",1740000,12.66,136,3.465,0.745,9.71,101.6733,3.569,4.899,66.79,0,109.8,13.46,4.33,98.0
"2010-03-07 01:41:00",1740001,12.53,136.5,3.762,0.575,9.79,101.6728,3.568,4.882,66.91,0,109.8,13.46,4.33,98.5
"2010-03-07 01:41:30",1740002,12.23,136.1,3.503,0.645,9.72,101.6742,3.571,4.886,66.97,0,109.8,13.46,4.34,98.1
"2010-03-07 01:42:00",1740003,12.08,136.6,3.304,0.755,9.85,101.6768,3.578,4.882,66.97,0,109.8,13.46,4.34,98.6
"2010-03-07 01:42:30",1740004,12.01,137.8,2.685,0.84,9.62,101.6731,3.569,4.862,67.07,0,109.8,13.46,4.33,99.8
"2010-03-07 01:43:00",1740005,12.15,137.3,3.895,0.744,9.83,101.6661,3.551,4.851,67.2,0,109.8,13.46,4.32,99.3
"2010-03-07 01:43:30",1740006,12.21,136.4,3.328,0.718,9.55,101.655,3.522,4.833,67.32,0,109.8,13.46,4.29,98.4
"2010-03-07 01:44:00",1740007,11.95,136.8,3.389,0.76,9.57,101.6471,3.502,4.844,67.41,0,109.8,13.46,4.27,98.8
"2010-03-07 01:44:30",1740008,12.13,136.2,3.272,0.748,9.51,101.6446,3.496,4.828,67.43,0,109.8,13.46,4.26,98.2
"2010-03-07 01:45:00",1740009,12.11,136.7,2.465,0.745,9.59,101.6443,3.495,4.831,67.5,0,109.8,13.46,4.26,98.7
"2010-03-07 01:45:30",1740010,12.31,135.9,3.873,0.469,9.62,101.6457,3.499,4.819,67.52,0,109.8,13.47,4.26,97.9
"2010-03-07 01:46:00",1740011,12.07,135.9,3.861,0.649,9.7,101.6449,3.497,4.828,67.45,0,109.8,13.47,4.26,97.9
"2010-03-07 01:46:30",1740012,12.02,134.4,3.547,0.761,9.53,101.6489,3.507,4.8,67.38,0,109.8,13.47,4.27,96.4
"2010-03-07 01:47:00",1740013,12.03,133.4,3.269,0.691,9.6,101.6483,3.505,4.795,67.55,0,109.8,13.47,4.27,95.4
"2010-03-07 01:47:30",1740014,11.78,133.1,3.89,0.598,9.55,101.6498,3.509,4.793,67.57,0,109.8,13.47,4.27,95.1
"2010-03-07 01:48:00",1740015,11.77,132.6,3.342,0.75,9.36,101.6449,3.497,4.797,67.58,0,109.8,13.47,4.26,94.6
"2010-03-07 01:48:30",1740016,11.46,132.5,3.353,0.746,9.28,101.6441,3.495,4.784,67.64,0,109.8,13.47,4.26,94.5
"2010-03-07 01:49:00",1740017,11.43,132.5,3.413,0.75,9.37,101.6396,3.483,4.754,67.52,0,109.8,13.47,4.25,94.5
"2010-03-07 01:49:30",1740018,11.43,132.3,2.714,0.738,9.1,101.6383,3.48,4.765,67.52,0,109.8,13.47,4.24,94.3